[[{"header":{"parameterUnit":"m.s-1","parameterCategory":1,"la1":30.2991,"la2":30.254,"lo1":-89.0895,"lo2":-89.0444,"dy":0.0017,"dx":0.0017,"nx":28,"ny":28,"refTime":"2026-02-02T03:00:00:Z","depth":0,"parameterNumber":2,"parameterNumberName":"U-component_of_WINDS"},"data":[0,0,0,0,0,0,0,0,0,0,0,0,0,0,0,0,0,0,0,0,0,0,0,0,0,0,0,0,0,0,0,0,0,0,0,0,0,0,0,0,0,0,0,0,0,0,0,0,0,0,0,0,0,0,0,0,0,0,3.21,3.2101,0,3.2194,3.2195,3.2196,3.2154,3.2152,3.2149,3.2147,3.2243,3.2247,3.2252,0,0,0,0,0,0,0,0,0,0,0,0,0,3.1879,3.1884,3.21,3.2101,3.2102,3.2194,3.2195,3.2197,3.2154,3.2152,3.2149,3.2146,3.2241,3.2247,3.2252,0,0,0,0,0,0,0,0,0,0,0,0,0,3.1975,3.1885,3.2099,3.2092,3.2092,3.2194,3.2195,3.2197,3.2155,3.2152,3.2148,3.2145,3.2239,3.2246,3.2253,3.2367,0,0,3.2275,3.2278,0,0,0,0,0,0,0,0,3.1969,3.1983,3.2092,3.2093,3.2093,3.2159,3.2153,3.2254,3.2156,3.2131,3.2147,3.2143,3.2217,3.2226,3.2251,3.2371,3.2375,3.2275,3.2279,3.2283,3.2284,0,0,0,0,0,0,0,3.1963,3.1978,3.2137,3.2094,3.2094,3.2083,3.2093,3.2172,3.2193,3.2133,3.213,3.2142,3.2217,3.2245,3.2253,3.2377,3.2275,3.2281,3.2286,3.2288,3.2591,3.2594,0,0,0,0,0,0,3.1956,3.1973,3.2134,3.214,3.2021,3.209,3.2101,3.2141,3.2192,3.2196,3.2145,3.214,3.2234,3.2245,3.2257,3.239,3.2282,3.2289,3.2293,3.2587,3.2592,3.2596,0,0,0,0,0,0,3.1952,3.1971,3.213,3.2056,3.2075,3.2097,3.2143,3.2145,3.2173,3.2201,3.2204,3.217,3.2232,3.2247,3.2339,3.2393,3.2292,3.2299,3.2582,3.2588,3.2594,3.266,0,0,0,0,0,0,3.1946,3.197,3.2014,3.2057,3.2079,3.2212,3.2147,3.2149,3.2185,3.2179,3.2225,3.2229,3.223,3.2329,3.2346,3.2401,3.2304,3.2578,3.2585,3.2592,3.2653,3.2667,3.2679,0,0,0,0,0,3.1938,3.203,3.2017,3.2036,3.2135,3.2215,3.2228,3.2228,3.219,3.2233,3.2251,3.2227,3.2385,3.2338,3.2358,3.2415,3.2574,3.2583,3.2591,3.2647,3.2664,3.2679,0,0,0,0,0,0,3.1992,3.2035,3.2021,3.213,3.2169,3.2208,3.2263,3.2247,3.2298,3.229,3.2288,3.2299,3.2394,3.2414,3.2362,3.2526,3.2473,3.2486,3.2509,3.2526,3.2539,3.2531,3.231,0,0,0,0,0,3.2017,3.2079,3.2113,3.2205,3.2226,3.2241,3.2276,3.2273,3.2314,3.233,3.2355,3.2395,3.2452,3.2491,3.2546,3.2656,3.2664,3.2705,3.2719,3.2729,3.2739,3.2796,3.2814,3.2624,3.2624,3.2623,0,0,3.2068,3.2099,3.2139,3.2217,3.2247,3.231,3.2256,3.2325,3.2371,3.2341,3.2428,3.2448,3.2492,3.2593,3.2639,3.2613,3.2794,3.274,3.2748,3.2753,3.2807,3.2825,3.2841,3.2629,3.2628,3.2627,0,0,3.2193,3.2224,3.2303,3.2334,3.238,3.239,3.2409,3.245,3.2462,3.255,3.2527,3.2582,3.2683,3.2714,3.2743,3.2879,3.2857,3.2897,3.2965,3.302,3.3035,3.3048,3.3093,3.3109,3.2907,3.2908,3.2908,0,3.225,3.2345,3.2345,3.2416,3.2449,3.2425,3.2503,3.2533,3.2595,3.2619,3.2589,3.2713,3.2742,3.2848,3.2881,3.2906,3.2926,3.289,3.3033,3.3046,3.3058,3.3101,3.3118,3.2912,3.2911,3.2911,3.2911,0,3.2412,3.2478,3.2536,3.2595,3.2636,3.2711,3.272,3.2761,3.2754,3.2766,3.2855,3.2888,3.2948,3.2974,3.2968,3.3079,3.3061,3.3033,3.2979,3.3081,3.3121,3.3137,3.2918,3.2916,3.2915,3.2914,0,0,3.2572,3.2631,3.2652,3.2677,3.2726,3.2777,3.2849,3.2908,3.2941,3.2985,3.3044,3.3129,3.3102,3.3135,3.3133,3.3182,3.3283,3.3147,3.3148,3.3168,3.3403,3.3422,3.3441,3.327,3.3273,3.3276,3.3398,0,3.2698,3.2825,3.2826,3.2943,3.3002,3.2979,3.3041,3.3077,3.3091,3.3142,3.3156,3.3215,3.3177,3.3197,3.3244,3.3261,3.3329,3.3252,3.3322,3.3325,3.3309,3.3462,3.3483,3.3597,3.3414,3.3417,3.3419,0,3.2862,3.291,3.3032,3.307,3.3095,3.3151,3.3203,3.3254,3.3293,3.3299,3.3336,3.3325,3.3397,3.3343,3.344,3.3387,3.3416,3.3429,3.3433,3.3437,3.3376,3.3468,3.3633,3.3649,3.3444,3.3442,3.344,0,3.2963,3.3058,3.3143,3.3166,3.3213,3.3253,3.3274,3.331,3.3345,3.3391,3.3412,3.3467,3.3495,3.3537,3.354,3.3501,3.3637,3.3584,3.3642,3.3642,3.3669,3.3667,3.3839,3.3693,3.3693,3.3693,3.3692,0,3.3101,3.3176,3.3188,3.324,3.3322,3.3323,3.3404,3.3422,3.3454,3.3507,3.3491,3.3541,3.3545,3.3596,3.36,3.3678,3.3692,3.3697,3.3696,3.3697,3.3695,3.3713,3.3704,3.3697,3.3696,3.3695,3.3695,0,3.3227,3.3238,3.3328,3.3366,3.3377,3.3435,3.3466,3.3515,3.3526,3.3594,3.361,3.3627,3.3687,3.3695,3.3765,3.3767,3.386,3.3853,3.3846,3.3844,3.39,3.3893,3.4087,3.4111,3.3953,3.3954,3.3955,0,3.3313,3.337,3.3413,3.3447,3.3471,3.3527,3.3562,3.3565,3.3601,3.3649,3.3691,3.3749,3.3795,3.389,3.3908,3.3961,3.3953,3.4017,3.3961,3.3958,3.395,3.3945,3.3949,3.4027,3.4029,3.403,3.4031,0,3.3464,3.3466,3.3517,3.357,3.3612,3.3654,3.3693,3.3722,3.3729,3.3771,3.3831,3.3867,3.3937,3.3993,3.4045,3.4065,3.4049,3.4049,3.4065,3.4064,3.4057,3.4058,3.3872,3.4044,3.4043,3.4042,3.4041,3.4041,3.357,3.3618,3.3655,3.3712,3.3742,3.3778,3.3824,3.3842,3.3892,3.3949,3.3948,3.4013,3.4049,3.4117,3.4141,3.4191,3.417,3.4193,3.4199,3.4203,3.4207,3.4051,3.4201,3.4201,3.42,3.42,3.42,0,3.3717,3.3739,3.3792,3.3846,3.3891,3.3873,3.3914,3.3952,3.401,3.4045,3.409,3.4158,3.4213,3.4235,3.4288,3.4323,3.4317,3.4337,3.4332,3.4337,3.4225,3.4205,3.4341,3.4341,3.4341,3.4341,3.4341,3.4341,3.3798,3.3878,3.3884,3.3978,3.4,3.4064,3.4089,3.4121,3.4149,3.4226,3.4271,3.4285,3.4315,3.4369,3.4417,3.4422,3.4441,3.4464,3.4465,3.436,3.4345,3.4331,3.4312,3.4469,3.4469,3.4572,3.4573,3.4574]},{"header":{"parameterUnit":"m.s-1","parameterCategory":1,"la1":30.2991,"la2":30.254,"lo1":-89.0895,"lo2":-89.0444,"dy":0.0017,"dx":0.0017,"nx":28,"ny":28,"refTime":"2026-02-02T03:00:00:Z","depth":0,"parameterNumber":3,"parameterNumberName":"V-component_of_WINDS"},"data":[0,0,0,0,0,0,0,0,0,0,0,0,0,0,0,0,0,0,0,0,0,0,0,0,0,0,0,0,0,0,0,0,0,0,0,0,0,0,0,0,0,0,0,0,0,0,0,0,0,0,0,0,0,0,0,0,0,0,3.6546,3.6548,0,3.6698,3.67,3.6702,3.6697,3.6695,3.6693,3.6691,3.6842,3.6848,3.6854,0,0,0,0,0,0,0,0,0,0,0,0,0,3.6247,3.6253,3.6546,3.6548,3.655,3.6698,3.67,3.6702,3.6697,3.6695,3.6692,3.669,3.684,3.6847,3.6854,0,0,0,0,0,0,0,0,0,0,0,0,0,3.6386,3.6254,3.6546,3.6566,3.6569,3.6698,3.67,3.6703,3.6698,3.6695,3.6692,3.6689,3.6838,3.6847,3.6855,3.6973,0,0,3.6883,3.6887,0,0,0,0,0,0,0,0,3.6378,3.6397,3.6561,3.6564,3.6568,3.6676,3.665,3.6793,3.6699,3.6649,3.6691,3.6687,3.6789,3.6802,3.6837,3.698,3.6987,3.6884,3.6889,3.6893,3.6895,0,0,0,0,0,0,0,3.6368,3.639,3.6606,3.6563,3.6568,3.6565,3.6581,3.6677,3.6734,3.6653,3.6653,3.6671,3.679,3.6828,3.6841,3.6989,3.6883,3.6891,3.6897,3.69,3.7235,3.7238,0,0,0,0,0,0,3.6355,3.6382,3.6601,3.6611,3.6464,3.6573,3.6591,3.6644,3.6733,3.6744,3.6674,3.667,3.6815,3.683,3.6846,3.6989,3.6893,3.6901,3.6906,3.7231,3.7235,3.7239,0,0,0,0,0,0,3.6349,3.6375,3.6595,3.6497,3.6524,3.6582,3.6641,3.6649,3.6687,3.6749,3.6759,3.6702,3.6813,3.6833,3.6942,3.6994,3.6905,3.6913,3.7227,3.7233,3.7237,3.7275,0,0,0,0,0,0,3.634,3.6372,3.6419,3.6498,3.653,3.669,3.6644,3.6654,3.6703,3.67,3.6779,3.6789,3.6812,3.6928,3.695,3.7004,3.692,3.7223,3.7229,3.7236,3.727,3.7281,3.7291,0,0,0,0,0,3.6329,3.6423,3.6421,3.6448,3.659,3.6693,3.6711,3.6738,3.6707,3.6754,3.6793,3.6786,3.6985,3.6939,3.6964,3.7022,3.7219,3.7228,3.7235,3.7265,3.7279,3.7291,0,0,0,0,0,0,3.6348,3.6434,3.6433,3.6555,3.6617,3.6692,3.6752,3.6752,3.6823,3.6817,3.6845,3.6863,3.6971,3.7007,3.6955,3.7139,3.7098,3.7111,3.7112,3.7126,3.7136,3.7125,3.6928,0,0,0,0,0,3.6367,3.6445,3.6515,3.6616,3.6647,3.6694,3.674,3.6755,3.682,3.6846,3.6893,3.6955,3.7031,3.708,3.7154,3.7275,3.7291,3.7327,3.7337,3.7346,3.7357,3.7421,3.7438,3.7265,3.7265,3.7265,0,0,3.6405,3.6462,3.6509,3.6621,3.6671,3.675,3.6716,3.6802,3.686,3.6858,3.6963,3.7,3.7071,3.7186,3.7238,3.7219,3.7408,3.7356,3.7362,3.7369,3.7431,3.7447,3.7462,3.7271,3.727,3.7269,0,0,3.6516,3.6567,3.6657,3.6707,3.6783,3.6813,3.6835,3.691,3.6935,3.7041,3.7041,3.711,3.7241,3.7291,3.7333,3.7462,3.7457,3.7485,3.754,3.7603,3.7617,3.7629,3.7673,3.7689,3.7495,3.7495,3.7496,0,3.6554,3.6675,3.6702,3.6788,3.6836,3.6839,3.6929,3.6976,3.7071,3.7104,3.7081,3.7245,3.7293,3.7418,3.745,3.7484,3.7508,3.7476,3.7613,3.7625,3.7637,3.768,3.7696,3.7498,3.7498,3.7498,3.7497,0,3.6717,3.68,3.6863,3.6956,3.7011,3.7099,3.7138,3.719,3.72,3.7232,3.7339,3.7396,3.7481,3.7512,3.7522,3.7639,3.7624,3.7607,3.7566,3.7656,3.7696,3.7713,3.7502,3.7501,3.75,3.75,0,0,3.6843,3.6951,3.6973,3.7015,3.7098,3.7162,3.7249,3.7333,3.7376,3.7442,3.7514,3.7624,3.7608,3.7656,3.7672,3.7727,3.7823,3.7703,3.7705,3.7722,3.7953,3.7965,3.7983,3.7821,3.7824,3.7827,3.7947,0,3.6962,3.7117,3.7144,3.7278,3.7355,3.7358,3.7433,3.7491,3.7523,3.7591,3.7626,3.7703,3.7678,3.7707,3.7762,3.78,3.787,3.7792,3.7886,3.7889,3.7868,3.8005,3.8018,3.8128,3.7963,3.7966,3.7968,0,3.7121,3.7191,3.7334,3.7406,3.7439,3.7506,3.7585,3.765,3.7716,3.7735,3.7788,3.7797,3.7885,3.784,3.796,3.7906,3.7946,3.7971,3.7975,3.7984,3.7933,3.8016,3.8164,3.8181,3.7993,3.7991,3.7989,0,3.7197,3.7328,3.743,3.7465,3.7553,3.7599,3.7637,3.77,3.7748,3.7816,3.7847,3.7924,3.7966,3.8024,3.8052,3.8017,3.817,3.8128,3.8186,3.8186,3.8218,3.8215,3.8373,3.8245,3.8245,3.8245,3.8244,0,3.7326,3.7413,3.7465,3.7528,3.7624,3.7653,3.7748,3.7784,3.784,3.7908,3.7915,3.7979,3.8013,3.8081,3.8104,3.8199,3.8218,3.8234,3.8239,3.8233,3.8231,3.8259,3.8252,3.8249,3.8248,3.8247,3.8247,0,3.7427,3.7466,3.7577,3.7651,3.7671,3.7739,3.7801,3.7861,3.7892,3.7979,3.8,3.8049,3.813,3.8164,3.8263,3.8278,3.8386,3.8386,3.8364,3.8366,3.8422,3.8416,3.8603,3.8628,3.8485,3.8486,3.8487,0,3.7507,3.7574,3.7654,3.7701,3.7741,3.7817,3.7866,3.7897,3.7947,3.8026,3.8076,3.8157,3.8223,3.8351,3.8394,3.8469,3.847,3.853,3.8481,3.8473,3.8469,3.8465,3.847,3.8539,3.854,3.8542,3.8543,0,3.7642,3.7658,3.773,3.7809,3.7867,3.793,3.7992,3.8029,3.8069,3.8125,3.8208,3.826,3.8361,3.844,3.8517,3.8554,3.8555,3.8558,3.8575,3.8569,3.8554,3.8562,3.8388,3.8553,3.8552,3.8551,3.8551,3.855,3.7734,3.7794,3.786,3.7939,3.7988,3.8045,3.8105,3.8144,3.8214,3.83,3.8313,3.8401,3.8463,3.8567,3.8607,3.8675,3.866,3.8685,3.8692,3.8697,3.87,3.8544,3.869,3.8689,3.8689,3.8689,3.8689,0,3.787,3.7912,3.7985,3.8071,3.8133,3.8129,3.8196,3.8248,3.8326,3.8384,3.8449,3.8544,3.8621,3.867,3.8747,3.8792,3.8793,3.8811,3.8807,3.8815,3.871,3.8687,3.8808,3.8808,3.8808,3.8808,3.8808,3.8808,3.7947,3.8047,3.807,3.8193,3.8235,3.8322,3.8361,3.8412,3.8459,3.8565,3.8629,3.8661,3.8716,3.8796,3.8866,3.8878,3.8905,3.8923,3.8934,3.8835,3.8823,3.8811,3.8789,3.893,3.893,3.9034,3.9035,3.9035]}]]